Location: Unspecified
(0.0000°N, 0.0000°E)
Time: 20:59:17
(UTC+00:00)

Envisat - Pass Details

Date: 04 April 2019
Orbit: 764 x 766 km, 98.1° (Epoch: 22 September)

Event Time Altitude Azimuth Distance (km) Brightness Sun altitude
Rises 18:44:23 0° 160° (SSE) 3,228 6.0 -10.3°
Reaches altitude 10° 18:46:44 10° 155° (SSE) 2,301 5.2 -10.9°
Maximum altitude 18:51:42 55° 78° (ENE) 916 3.1 -12.1°
Drops below altitude 10° 18:56:37 10° 1° (N) 2,292 5.5 -13.3°
Sets 18:58:57 0° 357° (N) 3,216 6.4 -13.9°
